,,,PA_Meas_PMT16A,,PR_Meas_QMR101_102,,RH_Meas_QMH101,,SR_Meas_QMS101,,TA_Meas_QMH101,,GenWind,,GenWind,
date,time,status,PA,status,PR,status,RH,status,SR,status,TA,status,DirAvg,status,SpdAvg,
2011-02-25, 00:00:05,VALID,1002.87,VALID,2,INVALID,163.693,VALID,0.100563,VALID,23.7991,VALID,246,VALID,1.83086,
2011-02-25, 00:01:05,VALID,1003.09,VALID,2.5,INVALID,163.716,VALID,0,VALID,23.7619,VALID,283,VALID,3.7457,
2011-02-25, 00:02:05,VALID,1003.05,VALID,2,INVALID,163.716,VALID,0,VALID,23.6257,VALID,285,VALID,2.65078,
2011-02-25, 00:03:05,VALID,1002.97,VALID,2,INVALID,163.754,VALID,0,VALID,23.5071,VALID,243,VALID,2.025,
2011-02-25, 00:04:05,VALID,1003.11,VALID,2,INVALID,163.731,VALID,0,VALID,23.3514,VALID,287,VALID,2.80664,
2011-02-25, 00:05:05,VALID,1003.13,VALID,2,INVALID,163.754,VALID,0,VALID,23.3337,VALID,290,VALID,3.45234,
2011-02-25, 00:06:05,VALID,1003.24,VALID,2,INVALID,163.762,VALID,0,VALID,23.2913,VALID,290,VALID,4.7332,
2011-02-25, 00:07:05,VALID,1003.07,VALID,2,INVALID,163.769,VALID,0,VALID,23.1356,VALID,262,VALID,2.27695,
2011-02-25, 00:08:05,VALID,1003.03,VALID,1,INVALID,163.769,VALID,0,VALID,23.0418,VALID,263,VALID,2.67578,
2011-02-25, 00:09:05,VALID,1003.02,VALID,1.5,INVALID,163.769,VALID,0,VALID,23.0224,VALID,287,VALID,1.54023,
2011-02-25, 00:10:05,VALID,1002.93,VALID,1,INVALID,163.777,VALID,0,VALID,22.98,VALID,266,VALID,1.09805,
2011-02-25, 00:11:05,VALID,1002.84,VALID,1,INVALID,163.777,VALID,0,VALID,23.0206,VALID,216,VALID,0.761328,
2011-02-25, 00:12:05,VALID,1002.8,VALID,1,INVALID,163.769,VALID,0,VALID,23.0401,VALID,258,VALID,1.03555,
2011-02-25, 00:13:05,VALID,1002.79,VALID,0.5,INVALID,163.777,VALID,0,VALID,23.0984,VALID,268,VALID,0.916016,
2011-02-25, 00:14:05,VALID,1002.71,VALID,0.5,INVALID,163.777,VALID,0,VALID,23.1568,VALID,301,VALID,2.01914,
2011-02-25, 00:15:05,VALID,1002.65,VALID,0.5,INVALID,163.754,VALID,0,VALID,23.1975,VALID,288,VALID,1.02578,
2011-02-25, 00:16:05,VALID,1002.63,VALID,0.5,INVALID,163.754,VALID,0,VALID,23.2347,VALID,283,VALID,1.51133,
2011-02-25, 00:17:05,VALID,1002.5,VALID,0,INVALID,163.8,VALID,0.100563,VALID,23.2736,VALID,297,VALID,1.975,
2011-02-25, 00:18:05,VALID,1002.44,VALID,0.5,INVALID,163.769,VALID,0,VALID,23.3125,VALID,314,VALID,0.826953,
2011-02-25, 00:19:05,VALID,1002.39,VALID,0,INVALID,163.777,VALID,0,VALID,23.3921,VALID,355,VALID,1.19375,
2011-02-25, 00:20:05,VALID,1002.36,VALID,0,INVALID,163.754,VALID,0,VALID,23.4098,VALID,293,VALID,1.91758,
2011-02-25, 00:21:05,VALID,1002.31,VALID,0,INVALID,163.762,VALID,0,VALID,23.4487,VALID,23,VALID,0.633984,
2011-02-25, 00:22:05,VALID,1002.29,VALID,0,INVALID,163.746,VALID,0,VALID,23.4877,VALID,297,VALID,1.05547,
2011-02-25, 00:23:05,VALID,1002.28,VALID,0,INVALID,163.739,VALID,0,VALID,23.5478,VALID,319,VALID,0.795703,
2011-02-25, 00:24:05,VALID,1002.24,VALID,0,INVALID,163.746,VALID,0,VALID,23.5655,VALID,292,VALID,0.412891,
2011-02-25, 00:25:05,VALID,1002.24,VALID,0,INVALID,163.746,VALID,0.100563,VALID,23.6044,VALID,294,VALID,1.58711,
2011-02-25, 00:26:05,VALID,1002.2,VALID,0.5,INVALID,163.739,VALID,0,VALID,23.6434,VALID,298,VALID,1.17617,
2011-02-25, 00:27:05,VALID,1002.19,VALID,0,INVALID,163.723,VALID,0,VALID,23.7017,VALID,353,VALID,1.38359,
2011-02-25, 00:28:05,VALID,1002.19,VALID,0,INVALID,163.701,VALID,0,VALID,23.7619,VALID,282,VALID,0.939844,
2011-02-25, 00:29:05,VALID,1002.18,VALID,0,INVALID,163.731,VALID,0,VALID,23.7796,VALID,307,VALID,0.441406,
2011-02-25, 00:30:05,VALID,1002.2,VALID,0,INVALID,163.723,VALID,0,VALID,23.7991,VALID,299,VALID,0.258984,
2011-02-25, 00:31:05,VALID,1002.18,VALID,0,INVALID,163.716,VALID,0,VALID,23.7991,VALID,278,VALID,0.622656,
2011-02-25, 00:32:05,VALID,1002.17,VALID,0.5,INVALID,163.716,VALID,0,VALID,23.8185,VALID,323,VALID,0.635938,
2011-02-25, 00:33:05,VALID,1002.19,VALID,0,INVALID,163.723,VALID,0,VALID,23.838,VALID,283,VALID,0.247656,
2011-02-25, 00:34:05,VALID,1002.13,VALID,0,INVALID,163.708,VALID,0,VALID,23.8575,VALID,357,VALID,1.02578,
2011-02-25, 00:35:05,VALID,1002.15,VALID,0,INVALID,163.708,VALID,0,VALID,23.8964,VALID,316,VALID,0.596484,
2011-02-25, 00:36:05,VALID,1002.18,VALID,0,INVALID,163.701,VALID,0,VALID,23.9159,VALID,294,VALID,0.827344,
2011-02-25, 00:37:05,VALID,1002.1,VALID,0.5,INVALID,163.708,VALID,0,VALID,23.9566,VALID,318,VALID,0.653125,
2011-02-25, 00:38:05,VALID,1002.08,VALID,0,INVALID,163.693,VALID,0,VALID,23.9742,VALID,266,VALID,0.780469,
2011-02-25, 00:39:05,VALID,1002.07,VALID,0,INVALID,163.723,VALID,0,VALID,23.9742,VALID,273,VALID,0.588672,
2011-02-25, 00:40:05,VALID,1001.99,VALID,0,INVALID,163.655,VALID,0,VALID,24.0345,VALID,294,VALID,1.3543,
2011-02-25, 00:41:05,VALID,1001.93,VALID,0,INVALID,163.693,VALID,0,VALID,24.0326,VALID,280,VALID,2.77187,
2011-02-25, 00:42:05,VALID,1001.91,VALID,0,INVALID,163.701,VALID,0,VALID,24.0734,VALID,312,VALID,1.31016,
2011-02-25, 00:43:05,VALID,1001.86,VALID,0,INVALID,163.701,VALID,0,VALID,24.0716,VALID,265,VALID,0.901953,
2011-02-25, 00:44:05,VALID,1001.82,VALID,0.5,INVALID,163.731,VALID,0,VALID,24.0716,VALID,300,VALID,1.07383,
2011-02-25, 00:45:05,VALID,1001.74,VALID,0,INVALID,163.685,VALID,0,VALID,24.091,VALID,283,VALID,1.22305,
2011-02-25, 00:46:05,VALID,1001.69,VALID,0,INVALID,163.693,VALID,0,VALID,24.1318,VALID,285,VALID,1.35625,
2011-02-25, 00:47:05,VALID,1001.71,VALID,0,INVALID,163.701,VALID,0,VALID,24.091,VALID,307,VALID,1.98125,
2011-02-25, 00:48:05,VALID,1001.69,VALID,0,INVALID,163.685,VALID,0,VALID,24.13,VALID,20,VALID,1.21914,
2011-02-25, 00:49:05,VALID,1001.67,VALID,0.5,INVALID,163.701,VALID,0,VALID,24.1494,VALID,283,VALID,1.64141,
2011-02-25, 00:50:05,VALID,1001.65,VALID,0,INVALID,163.693,VALID,0.100563,VALID,24.1281,VALID,303,VALID,1.82227,
2011-02-25, 00:51:05,VALID,1001.61,VALID,0,INVALID,163.678,VALID,0,VALID,24.1494,VALID,291,VALID,1.53125,
2011-02-25, 00:52:05,VALID,1001.61,VALID,0,INVALID,163.708,VALID,0,VALID,24.1494,VALID,307,VALID,1.63086,
2011-02-25, 00:53:05,VALID,1001.59,VALID,0,INVALID,163.685,VALID,0,VALID,24.1494,VALID,288,VALID,1.81758,
2011-02-25, 00:54:05,VALID,1001.62,VALID,0,INVALID,163.693,VALID,0,VALID,24.1689,VALID,297,VALID,1.70273,
2011-02-25, 00:55:05,VALID,1001.61,VALID,0,INVALID,163.685,VALID,0,VALID,24.1689,VALID,269,VALID,0.662891,
2011-02-25, 00:56:05,VALID,1001.62,VALID,0,INVALID,163.693,VALID,0,VALID,24.1707,VALID,237,VALID,0.700781,
2011-02-25, 00:57:05,VALID,1001.61,VALID,0,INVALID,163.701,VALID,0,VALID,24.1513,VALID,298,VALID,0.764844,
2011-02-25, 00:58:05,VALID,1001.63,VALID,0,INVALID,163.701,VALID,0,VALID,24.1531,VALID,303,VALID,1.59805,
2011-02-25, 00:59:05,VALID,1001.63,VALID,0,INVALID,163.708,VALID,0,VALID,24.1318,VALID,305,VALID,0.734766,
2011-02-25, 01:00:05,VALID,1001.62,VALID,0,INVALID,163.693,VALID,0,VALID,24.1123,VALID,279,VALID,0.558203,
2011-02-25, 01:01:05,VALID,1001.61,VALID,0,INVALID,163.701,VALID,0,VALID,24.0929,VALID,273,VALID,0.965625,
2011-02-25, 01:02:05,VALID,1001.58,VALID,0.5,INVALID,163.708,VALID,0,VALID,24.0539,VALID,278,VALID,0.912891,
2011-02-25, 01:03:05,VALID,1001.56,VALID,0,INVALID,163.716,VALID,0,VALID,24.015,VALID,338,VALID,1.23438,
2011-02-25, 01:04:05,VALID,1001.58,VALID,0,INVALID,163.685,VALID,0,VALID,23.9761,VALID,285,VALID,1.37734,
2011-02-25, 01:05:05,VALID,1001.53,VALID,0,INVALID,163.708,VALID,0,VALID,23.9371,VALID,296,VALID,0.758203,
2011-02-25, 01:06:05,VALID,1001.52,VALID,0,INVALID,163.701,VALID,0,VALID,23.8982,VALID,264,VALID,0.618359,
2011-02-25, 01:07:05,VALID,1001.49,VALID,0,INVALID,163.693,VALID,0,VALID,23.8787,VALID,286,VALID,1.31094,
2011-02-25, 01:08:05,VALID,1001.47,VALID,0,INVALID,163.678,VALID,0,VALID,23.8593,VALID,303,VALID,1.09102,
2011-02-25, 01:09:05,VALID,1001.44,VALID,0,INVALID,163.701,VALID,0,VALID,23.8593,VALID,342,VALID,0.791016,
2011-02-25, 01:10:05,VALID,1001.42,VALID,0,INVALID,163.716,VALID,0,VALID,23.9,VALID,301,VALID,0.900781,
2011-02-25, 01:11:05,VALID,1001.42,VALID,0,INVALID,163.701,VALID,0,VALID,23.9159,VALID,335,VALID,0.535937,
2011-02-25, 01:12:05,VALID,1001.37,VALID,0,INVALID,163.723,VALID,0,VALID,23.9353,VALID,261,VALID,0.864453,
2011-02-25, 01:13:05,VALID,1001.33,VALID,0,INVALID,163.662,VALID,0,VALID,23.9955,VALID,308,VALID,2.30586,
2011-02-25, 01:14:05,VALID,1001.32,VALID,0,INVALID,163.693,VALID,0,VALID,23.9937,VALID,265,VALID,0.573438,
2011-02-25, 01:15:05,VALID,1001.34,VALID,0,INVALID,163.685,VALID,0,VALID,23.9937,VALID,351,VALID,0.848047,
2011-02-25, 01:16:05,VALID,1001.32,VALID,0,INVALID,163.708,VALID,0,VALID,23.9548,VALID,295,VALID,1.02617,
2011-02-25, 01:17:05,VALID,1001.3,VALID,0,INVALID,163.685,VALID,0,VALID,23.8751,VALID,289,VALID,2.61445,
2011-02-25, 01:18:05,VALID,1001.28,VALID,0,INVALID,163.693,VALID,0,VALID,23.838,VALID,316,VALID,0.807422,
2011-02-25, 01:19:05,VALID,1001.26,VALID,0,INVALID,163.708,VALID,0,VALID,23.8398,VALID,302,VALID,1.78633,
2011-02-25, 01:20:05,VALID,1001.22,VALID,0,INVALID,163.708,VALID,0,VALID,23.7796,VALID,292,VALID,1.79297,
2011-02-25, 01:21:05,VALID,1001.21,VALID,0,INVALID,163.685,VALID,0,VALID,23.7601,VALID,357,VALID,1.50781,
2011-02-25, 01:22:05,VALID,1001.19,VALID,0,INVALID,163.685,VALID,0,VALID,23.7212,VALID,230,VALID,0.777344,
2011-02-25, 01:23:05,VALID,1001.14,VALID,0,INVALID,163.739,VALID,0,VALID,23.723,VALID,243,VALID,0.377734,
2011-02-25, 01:24:05,VALID,1001.12,VALID,0.5,INVALID,163.708,VALID,0,VALID,23.661,VALID,338,VALID,0.397266,
2011-02-25, 01:25:05,VALID,1001.13,VALID,0,INVALID,163.716,VALID,0.100563,VALID,23.7017,VALID,318,VALID,0.735156,
2011-02-25, 01:26:05,VALID,1001.12,VALID,0,INVALID,163.708,VALID,0,VALID,23.6841,VALID,360,VALID,0.564062,
2011-02-25, 01:27:05,VALID,1001.1,VALID,0,INVALID,163.716,VALID,0,VALID,23.6434,VALID,13,VALID,0.558203,
2011-02-25, 01:28:05,VALID,1001.06,VALID,0,INVALID,163.723,VALID,0,VALID,23.6434,VALID,355,VALID,1.04961,
2011-02-25, 01:29:05,VALID,1001.09,VALID,0,INVALID,163.723,VALID,0,VALID,23.6628,VALID,292,VALID,0.792969,
2011-02-25, 01:30:05,VALID,1001.06,VALID,0,INVALID,163.708,VALID,0,VALID,23.6628,VALID,278,VALID,0.288281,
2011-02-25, 01:31:05,VALID,1001.06,VALID,0,INVALID,163.723,VALID,0,VALID,23.6841,VALID,278,VALID,0.0289063,
2011-02-25, 01:32:05,VALID,1001.05,VALID,0,INVALID,163.708,VALID,0,VALID,23.6434,VALID,334,VALID,0.437109,
2011-02-25, 01:33:05,VALID,1001.03,VALID,0,INVALID,163.731,VALID,0.100563,VALID,23.6434,VALID,313,VALID,0.205469,
2011-02-25, 01:34:05,VALID,1001.01,VALID,0,INVALID,163.701,VALID,0,VALID,23.6434,VALID,316,VALID,0.3,
2011-02-25, 01:35:05,VALID,1001.01,VALID,0,INVALID,163.701,VALID,0,VALID,23.6239,VALID,357,VALID,0.944922,
2011-02-25, 01:36:05,VALID,1000.99,VALID,0,INVALID,163.716,VALID,0,VALID,23.6239,VALID,352,VALID,0.660547,
2011-02-25, 01:37:05,VALID,1000.99,VALID,0,INVALID,163.723,VALID,0,VALID,23.6434,VALID,349,VALID,0.951563,
2011-02-25, 01:38:05,VALID,1000.96,VALID,0,INVALID,163.723,VALID,0,VALID,23.6628,VALID,358,VALID,0.362891,
2011-02-25, 01:39:05,VALID,1000.98,VALID,0,INVALID,163.701,VALID,0,VALID,23.6628,VALID,349,VALID,0.755469,
2011-02-25, 01:40:05,VALID,1000.93,VALID,0,INVALID,163.693,VALID,0,VALID,23.6823,VALID,350,VALID,0.395703,
2011-02-25, 01:41:05,VALID,1000.88,VALID,0,INVALID,163.739,VALID,0,VALID,23.723,VALID,350,VALID,0.610937,
2011-02-25, 01:42:05,VALID,1000.9,VALID,0,INVALID,163.739,VALID,0,VALID,23.7212,VALID,351,VALID,0.869922,
2011-02-25, 01:43:05,VALID,1000.86,VALID,0,INVALID,163.731,VALID,0,VALID,23.7212,VALID,344,VALID,0.780859,
2011-02-25, 01:44:05,VALID,1000.83,VALID,0,INVALID,163.716,VALID,0,VALID,23.7601,VALID,355,VALID,0.954297,
2011-02-25, 01:45:05,VALID,1000.8,VALID,0,INVALID,163.685,VALID,0,VALID,23.7796,VALID,339,VALID,1.02539,
2011-02-25, 01:46:04,VALID,1000.76,VALID,0,INVALID,163.693,VALID,0,VALID,23.8398,VALID,360,VALID,1.34531,
2011-02-25, 01:47:04,VALID,1000.75,VALID,0,INVALID,163.685,VALID,0,VALID,23.8575,VALID,345,VALID,0.951953,
2011-02-25, 01:48:04,VALID,1000.76,VALID,0,INVALID,163.701,VALID,0,VALID,23.8769,VALID,352,VALID,0.432813,
2011-02-25, 01:49:04,VALID,1000.74,VALID,0,INVALID,163.693,VALID,0,VALID,23.8769,VALID,355,VALID,1.20586,
2011-02-25, 01:50:04,VALID,1000.76,VALID,0,INVALID,163.708,VALID,0.100563,VALID,23.9177,VALID,313,VALID,0.292188,
2011-02-25, 01:51:04,VALID,1000.77,VALID,0,INVALID,163.716,VALID,0,VALID,23.9159,VALID,289,VALID,1.17344,
2011-02-25, 01:52:04,VALID,1000.76,VALID,0,INVALID,163.708,VALID,0,VALID,23.9177,VALID,1,VALID,1.01133,
2011-02-25, 01:53:04,VALID,1000.75,VALID,0,INVALID,163.701,VALID,0,VALID,23.9177,VALID,360,VALID,1.00781,
2011-02-25, 01:54:04,VALID,1000.76,VALID,0,INVALID,163.685,VALID,0,VALID,23.9159,VALID,339,VALID,0.142188,
2011-02-25, 01:55:04,VALID,1000.75,VALID,0,INVALID,163.685,VALID,0,VALID,23.9371,VALID,352,VALID,0.746094,
2011-02-25, 01:56:04,VALID,1000.73,VALID,0,INVALID,163.731,VALID,0,VALID,23.8964,VALID,347,VALID,0.514844,
2011-02-25, 01:57:04,VALID,1000.74,VALID,0,INVALID,163.701,VALID,0,VALID,23.9177,VALID,357,VALID,0.289844,
2011-02-25, 01:58:04,VALID,1000.72,VALID,0,INVALID,163.678,VALID,0,VALID,23.9159,VALID,161,VALID,0.7875,
2011-02-25, 01:59:04,VALID,1000.72,VALID,0,INVALID,163.708,VALID,0,VALID,23.8556,VALID,337,VALID,1.48906,
2011-02-25, 02:00:04,VALID,1000.74,VALID,0,INVALID,163.701,VALID,0,VALID,23.9177,VALID,349,VALID,0.765625,
2011-02-25, 02:01:04,VALID,1000.72,VALID,0,INVALID,163.716,VALID,0.100563,VALID,23.9177,VALID,351,VALID,1.04844,
2011-02-25, 02:02:04,VALID,1000.71,VALID,0,INVALID,163.685,VALID,0,VALID,23.8769,VALID,357,VALID,1.12422,
2011-02-25, 02:03:04,VALID,1000.76,VALID,0,INVALID,163.701,VALID,0,VALID,23.8769,VALID,341,VALID,1.04961,
2011-02-25, 02:04:04,VALID,1000.74,VALID,0,INVALID,163.716,VALID,0,VALID,23.8769,VALID,12,VALID,0.720312,
2011-02-25, 02:05:04,VALID,1000.69,VALID,0,INVALID,163.685,VALID,0,VALID,23.8575,VALID,357,VALID,1.09687,
2011-02-25, 02:06:04,VALID,1000.69,VALID,0,INVALID,163.67,VALID,0.100563,VALID,23.8982,VALID,3,VALID,0.641797,
2011-02-25, 02:07:04,VALID,1000.7,VALID,0,INVALID,163.731,VALID,0,VALID,23.8769,VALID,337,VALID,0.296875,
2011-02-25, 02:08:04,VALID,1000.73,VALID,0,INVALID,163.708,VALID,0,VALID,23.8769,VALID,331,VALID,0.745313,
2011-02-25, 02:09:04,VALID,1000.76,VALID,0,INVALID,163.693,VALID,0,VALID,23.8575,VALID,333,VALID,1.07734,
2011-02-25, 02:10:04,VALID,1000.77,VALID,0,INVALID,163.678,VALID,0,VALID,23.8575,VALID,346,VALID,1.325,
2011-02-25, 02:11:04,VALID,1000.78,VALID,0,INVALID,163.693,VALID,0,VALID,23.8575,VALID,355,VALID,1.12539,
2011-02-25, 02:12:04,VALID,1000.77,VALID,0,INVALID,163.708,VALID,0,VALID,23.8575,VALID,344,VALID,1.20938,
2011-02-25, 02:13:04,VALID,1000.79,VALID,0,INVALID,163.693,VALID,0,VALID,23.8769,VALID,253,VALID,0.573438,
2011-02-25, 02:14:04,VALID,1000.8,VALID,0,INVALID,163.678,VALID,0,VALID,23.8575,VALID,336,VALID,0.786328,
2011-02-25, 02:15:04,VALID,1000.83,VALID,0.5,INVALID,163.693,VALID,0,VALID,23.8575,VALID,358,VALID,1.08398,
2011-02-25, 02:16:04,VALID,1000.87,VALID,0,INVALID,163.731,VALID,0.100563,VALID,23.8575,VALID,356,VALID,0.941797,
2011-02-25, 02:17:04,VALID,1000.88,VALID,0,INVALID,163.708,VALID,0.100563,VALID,23.8362,VALID,354,VALID,1.57773,
2011-02-25, 02:18:04,VALID,1000.88,VALID,0,INVALID,163.708,VALID,0,VALID,23.838,VALID,9,VALID,1.48711,
2011-02-25, 02:19:04,VALID,1000.87,VALID,0,INVALID,163.708,VALID,0,VALID,23.8982,VALID,9,VALID,0.732031,
2011-02-25, 02:20:04,VALID,1000.86,VALID,0,INVALID,163.708,VALID,0,VALID,23.8185,VALID,5,VALID,1.6582,
2011-02-25, 02:21:04,VALID,1000.88,VALID,0,INVALID,163.701,VALID,0,VALID,23.8185,VALID,345,VALID,1.62852,
2011-02-25, 02:22:04,VALID,1000.88,VALID,0,INVALID,163.701,VALID,0,VALID,23.8185,VALID,351,VALID,1.18672,
2011-02-25, 02:23:04,VALID,1000.87,VALID,0,INVALID,163.67,VALID,0,VALID,23.8185,VALID,1,VALID,1.08164,
2011-02-25, 02:24:04,VALID,1000.87,VALID,0,INVALID,163.685,VALID,0,VALID,23.8398,VALID,353,VALID,1.49688,
2011-02-25, 02:25:04,VALID,1000.9,VALID,0,INVALID,163.693,VALID,0,VALID,23.8185,VALID,351,VALID,1.11133,
2011-02-25, 02:26:04,VALID,1000.86,VALID,0,INVALID,163.708,VALID,0,VALID,23.8185,VALID,3,VALID,0.999219,
2011-02-25, 02:27:04,VALID,1000.84,VALID,0,INVALID,163.716,VALID,0,VALID,23.7973,VALID,354,VALID,1.21133,
2011-02-25, 02:28:04,VALID,1000.89,VALID,0,INVALID,163.708,VALID,0.100563,VALID,23.8185,VALID,278,VALID,1.32813,
2011-02-25, 02:29:04,VALID,1000.89,VALID,0,INVALID,163.701,VALID,0.100563,VALID,23.7212,VALID,344,VALID,3.18711,
2011-02-25, 02:30:04,VALID,1000.97,VALID,0,INVALID,163.685,VALID,0.100563,VALID,23.7212,VALID,333,VALID,3.6418,
2011-02-25, 02:31:04,VALID,1000.9,VALID,0,INVALID,163.701,VALID,0,VALID,23.6434,VALID,343,VALID,1.43945,
2011-02-25, 02:32:04,VALID,1001,VALID,0.5,INVALID,163.731,VALID,0,VALID,23.6239,VALID,292,VALID,1.20313,
2011-02-25, 02:33:04,VALID,1001.04,VALID,0,INVALID,163.731,VALID,0,VALID,23.4682,VALID,288,VALID,2.31016,
2011-02-25, 02:34:04,VALID,1001,VALID,0,INVALID,163.731,VALID,0,VALID,23.332,VALID,310,VALID,2.73164,
2011-02-25, 02:35:04,VALID,1000.99,VALID,0,INVALID,163.746,VALID,0.100563,VALID,23.2931,VALID,305,VALID,1.44883,
2011-02-25, 02:36:04,VALID,1001.07,VALID,0,INVALID,163.739,VALID,0.100563,VALID,23.1957,VALID,304,VALID,2.46875,
2011-02-25, 02:37:04,VALID,1001.05,VALID,0,INVALID,163.739,VALID,0,VALID,23.1374,VALID,319,VALID,2.06953,
2011-02-25, 02:38:04,VALID,1001.06,VALID,0,INVALID,163.769,VALID,0,VALID,23.0984,VALID,307,VALID,3.94023,
2011-02-25, 02:39:04,VALID,1001.06,VALID,0,INVALID,163.762,VALID,0,VALID,23.0595,VALID,350,VALID,2.59648,
2011-02-25, 02:40:04,VALID,1000.98,VALID,0.5,INVALID,163.746,VALID,0,VALID,23.0206,VALID,313,VALID,1.13359,
2011-02-25, 02:41:04,VALID,1000.85,VALID,0.5,INVALID,163.762,VALID,0,VALID,22.9817,VALID,336,VALID,1.62461,
2011-02-25, 02:42:04,VALID,1000.84,VALID,0,INVALID,163.777,VALID,0,VALID,22.9834,VALID,315,VALID,1.98828,
2011-02-25, 02:43:04,VALID,1000.84,VALID,0,INVALID,163.777,VALID,0.100563,VALID,22.9622,VALID,301,VALID,1.60625,
2011-02-25, 02:44:04,VALID,1000.77,VALID,0,INVALID,163.8,VALID,0,VALID,22.9622,VALID,311,VALID,0.917188,
2011-02-25, 02:45:04,VALID,1000.69,VALID,0,INVALID,163.769,VALID,0,VALID,22.9428,VALID,289,VALID,2.31953,
2011-02-25, 02:46:04,VALID,1000.7,VALID,0,INVALID,163.8,VALID,0,VALID,22.9021,VALID,339,VALID,1.66836,
2011-02-25, 02:47:04,VALID,1000.72,VALID,0,INVALID,163.784,VALID,0,VALID,22.8827,VALID,337,VALID,1.99141,
2011-02-25, 02:48:04,VALID,1000.74,VALID,0,INVALID,163.762,VALID,0.100563,VALID,22.8632,VALID,26,VALID,0.910547,
2011-02-25, 02:49:04,VALID,1000.64,VALID,0.5,INVALID,163.777,VALID,0,VALID,22.8438,VALID,3,VALID,2.28047,
2011-02-25, 02:50:04,VALID,1000.67,VALID,0,INVALID,163.769,VALID,0.100563,VALID,22.8649,VALID,349,VALID,1.8918,
2011-02-25, 02:51:04,VALID,1000.68,VALID,0,INVALID,163.769,VALID,0,VALID,22.826,VALID,346,VALID,1.95508,
2011-02-25, 02:52:04,VALID,1000.64,VALID,0,INVALID,163.777,VALID,0.100563,VALID,22.8066,VALID,349,VALID,2.23555,
2011-02-25, 02:53:04,VALID,1000.61,VALID,0,INVALID,163.792,VALID,0.100563,VALID,22.8066,VALID,287,VALID,1.00195,
2011-02-25, 02:54:04,VALID,1000.65,VALID,0,INVALID,163.784,VALID,0,VALID,22.7854,VALID,346,VALID,1.05508,
2011-02-25, 02:55:04,VALID,1000.66,VALID,0,INVALID,163.792,VALID,0.100563,VALID,22.8066,VALID,327,VALID,1.07539,
2011-02-25, 02:56:04,VALID,1000.63,VALID,0,INVALID,163.792,VALID,0.100563,VALID,22.7854,VALID,340,VALID,1.21445,
2011-02-25, 02:57:04,VALID,1000.63,VALID,0,INVALID,163.807,VALID,0,VALID,22.8455,VALID,29,VALID,1.19453,
2011-02-25, 02:58:04,VALID,1000.66,VALID,0,INVALID,163.792,VALID,0,VALID,22.826,VALID,346,VALID,0.635156,
2011-02-25, 02:59:04,VALID,1000.69,VALID,0,INVALID,163.784,VALID,0,VALID,22.8455,VALID,314,VALID,0.612109,
2011-02-25, 03:00:04,VALID,1000.71,VALID,0,INVALID,163.792,VALID,0,VALID,22.8438,VALID,345,VALID,1.08984,
2011-02-25, 03:01:04,VALID,1000.78,VALID,0,INVALID,163.777,VALID,0.100563,VALID,22.8243,VALID,354,VALID,2.25156,
2011-02-25, 03:02:04,VALID,1000.77,VALID,0,INVALID,163.8,VALID,0.100563,VALID,22.8649,VALID,266,VALID,1.14219,
2011-02-25, 03:03:04,VALID,1000.84,VALID,0,INVALID,163.769,VALID,0.100563,VALID,22.8455,VALID,302,VALID,0.840625,
2011-02-25, 03:04:04,VALID,1000.87,VALID,0,INVALID,163.815,VALID,0,VALID,22.826,VALID,335,VALID,1.07344,
2011-02-25, 03:05:04,VALID,1000.91,VALID,0,INVALID,163.807,VALID,0,VALID,22.8455,VALID,326,VALID,1.8207,
2011-02-25, 03:06:04,VALID,1000.88,VALID,0,INVALID,163.784,VALID,0,VALID,22.8278,VALID,293,VALID,0.855469,
2011-02-25, 03:07:04,VALID,1000.87,VALID,0,INVALID,163.792,VALID,0,VALID,22.8048,VALID,335,VALID,0.723828,
2011-02-25, 03:08:04,VALID,1000.85,VALID,0,INVALID,163.784,VALID,0,VALID,22.8455,VALID,344,VALID,0.84375,
2011-02-25, 03:09:04,VALID,1000.82,VALID,0,INVALID,163.784,VALID,0,VALID,22.8243,VALID,356,VALID,0.934375,
2011-02-25, 03:10:04,VALID,1000.8,VALID,0,INVALID,163.777,VALID,0,VALID,22.8243,VALID,343,VALID,1.62305,
2011-02-25, 03:11:04,VALID,1000.76,VALID,0,INVALID,163.769,VALID,0,VALID,22.8649,VALID,348,VALID,1.35234,
2011-02-25, 03:12:04,VALID,1000.75,VALID,0,INVALID,163.769,VALID,0.100563,VALID,22.8632,VALID,313,VALID,1.02383,
2011-02-25, 03:13:04,VALID,1000.73,VALID,0,INVALID,163.777,VALID,0.100563,VALID,22.9021,VALID,263,VALID,0.423047,
2011-02-25, 03:14:04,VALID,1000.71,VALID,0,INVALID,163.746,VALID,0,VALID,22.9251,VALID,353,VALID,2.12656,
2011-02-25, 03:15:04,VALID,1000.69,VALID,0,INVALID,163.777,VALID,0,VALID,22.9233,VALID,274,VALID,0.90625,
2011-02-25, 03:16:04,VALID,1000.69,VALID,0,INVALID,163.784,VALID,0,VALID,22.9428,VALID,294,VALID,1.7168,
2011-02-25, 03:17:04,VALID,1000.68,VALID,0,INVALID,163.769,VALID,0,VALID,22.9021,VALID,294,VALID,2.52539,
2011-02-25, 03:18:04,VALID,1000.68,VALID,0,INVALID,163.784,VALID,0,VALID,22.9216,VALID,236,VALID,0.919922,
2011-02-25, 03:19:04,VALID,1000.64,VALID,0,INVALID,163.777,VALID,0,VALID,22.9428,VALID,286,VALID,1.69141,
2011-02-25, 03:20:04,VALID,1000.62,VALID,0,INVALID,163.762,VALID,0,VALID,22.9021,VALID,318,VALID,1.21055,
2011-02-25, 03:21:04,VALID,1000.6,VALID,0,INVALID,163.784,VALID,0,VALID,22.9021,VALID,290,VALID,1.82695,
2011-02-25, 03:22:04,VALID,1000.62,VALID,0,INVALID,163.792,VALID,0.100563,VALID,22.9622,VALID,333,VALID,0.251172,
2011-02-25, 03:23:04,VALID,1000.6,VALID,0,INVALID,163.754,VALID,0,VALID,22.9428,VALID,27,VALID,0.605469,
2011-02-25, 03:24:04,VALID,1000.6,VALID,0,INVALID,163.769,VALID,0.100563,VALID,22.9216,VALID,344,VALID,1.17617,
2011-02-25, 03:25:04,VALID,1000.58,VALID,0,INVALID,163.784,VALID,0.100563,VALID,22.9233,VALID,323,VALID,0.644922,
2011-02-25, 03:26:04,VALID,1000.59,VALID,0,INVALID,163.792,VALID,0,VALID,22.9039,VALID,306,VALID,0.528516,
2011-02-25, 03:27:04,VALID,1000.56,VALID,0,INVALID,163.8,VALID,0,VALID,22.8827,VALID,307,VALID,0.737891,
2011-02-25, 03:28:04,VALID,1000.55,VALID,0,INVALID,163.769,VALID,0,VALID,22.9039,VALID,284,VALID,0.345313,
2011-02-25, 03:29:04,VALID,1000.52,VALID,0,INVALID,163.784,VALID,0.100563,VALID,22.8243,VALID,354,VALID,1.4832,
2011-02-25, 03:30:04,VALID,1000.55,VALID,0,INVALID,163.777,VALID,0,VALID,22.8243,VALID,344,VALID,1.06758,
2011-02-25, 03:31:04,VALID,1000.53,VALID,0,INVALID,163.777,VALID,0,VALID,22.8455,VALID,324,VALID,1.0668,
2011-02-25, 03:32:04,VALID,1000.53,VALID,0,INVALID,163.792,VALID,0.100563,VALID,22.8066,VALID,352,VALID,1.97383,
2011-02-25, 03:33:04,VALID,1000.53,VALID,0,INVALID,163.807,VALID,0,VALID,22.7871,VALID,358,VALID,1.20625,
2011-02-25, 03:34:04,VALID,1000.56,VALID,0,INVALID,163.807,VALID,0,VALID,22.7871,VALID,2,VALID,1.03711,
2011-02-25, 03:35:04,VALID,1000.61,VALID,0,INVALID,163.784,VALID,0,VALID,22.7659,VALID,348,VALID,0.453125,
2011-02-25, 03:36:04,VALID,1000.63,VALID,0,INVALID,163.8,VALID,0.100563,VALID,22.7076,VALID,348,VALID,1.9043,
2011-02-25, 03:37:04,VALID,1000.65,VALID,0,INVALID,163.8,VALID,0,VALID,22.7076,VALID,352,VALID,0.370703,
2011-02-25, 03:38:04,VALID,1000.62,VALID,0,INVALID,163.784,VALID,0.100563,VALID,22.7287,VALID,28,VALID,0.619141,